This demonstration page uses our WeatherBlox Daily Observations layout. Learn more.

Left ArrowRight Arrow

33.98154, -81.23621

Hourly Observations for July 5, 2022

Temp ( °F °C ) Dew Point ( °F °C ) Humidity (%) Winds ( mph kmh ) Pressure ( in mb ) Visibility ( mi km ) Precip ( " mm )
12:56 am 00:56 Mostly Cloudy 76 24.4 75 23.9 97 97 NE 3 6 30.12 1020 8 13 0.00 0.00
1:56 am 01:56 Mostly Cloudy 76 24.4 75 23.9 97 97 ENE 6 9 30.10 1019 7 11 0.00 0.00
2:19 am 02:19 Cloudy 76 24.4 75 23.9 97 97 E 5 7 30.10 1019 7 11 0.00 0.00
2:56 am 02:56 Cloudy 76 24.4 75 23.9 97 97 E 5 7 30.09 1019 7 11 0.00 0.00
3:03 am 03:03 Cloudy 76 24.4 75 23.9 97 97 E 6 9 30.09 1019 7 11 0.00 0.00
3:19 am 03:19 Cloudy with Mist and Fog 76 24.4 75 23.9 97 97 E 6 9 30.08 1019 6 10 0.00 0.00
3:51 am 03:51 Cloudy 75 24 75 24 100 100 ESE 3 6 30.07 1018 7 11 0.00 0.00
3:56 am 03:56 Cloudy 76 24.4 75 23.9 97 97 E 3 6 30.07 1018 7 11 0.00 0.00
4:16 am 04:16 Cloudy 75 24 75 24 100 100 E 5 7 30.08 1019 8 13 0.00 0.00
4:25 am 04:25 Cloudy 76 24.4 75 23.9 97 97 E 5 7 30.07 1018 8 13 0.00 0.00
4:56 am 04:56 Cloudy 76 24.4 75 23.9 97 97 VRB 3 6 30.06 1018 7 11 0.00 0.00
5:06 am 05:06 Cloudy 76 24.4 75 23.9 97 97 E 3 6 30.07 1018 7 11 0.00 0.00
5:37 am 05:37 Cloudy with Mist and Fog 76 24.4 75 23.9 97 97 ESE 5 7 30.07 1018 6 10 0.00 0.00
5:56 am 05:56 Cloudy with Mist and Fog 76 24.4 75 23.9 97 97 E 3 6 30.08 1019 5 8 0.00 0.00
6:28 am 06:28 Cloudy with Fog 75 24 75 24 100 100 Calm 30.08 1019 1 1 0.00 0.00
6:56 am 06:56 Cloudy with Fog 76 24.4 76 24.4 100 100 Calm 30.09 1019 1 1 0.00 0.00
7:56 am 07:56 Cloudy with Mist and Fog 76 24.4 76 24.4 100 100 Calm 30.10 1019 1 1 0.00 0.00
8:11 am 08:11 Cloudy with Mist and Fog 77 25 76 24.4 96 96 Calm 30.11 1020 1 2 0.00 0.00
8:36 am 08:36 Cloudy with Mist and Fog 77 25 76 24.4 96 96 Calm 30.11 1020 3 5 0.00 0.00
8:56 am 08:56 Cloudy with Mist and Fog 78 25.6 76 24.4 93 93 Calm 30.12 1020 5 8 0.00 0.00
9:56 am 09:56 Cloudy 79 26.1 75 23.9 88 88 SSW 3 6 30.11 1020 7 11 0.00 0.00
10:56 am 10:56 Cloudy 81 27.2 76 24.4 85 85 W 3 6 30.11 1020 9 14 0.00 0.00
11:24 am 11:24 Cloudy 82 28 75 24 79 79 Calm 30.10 1019 10 16 0.00 0.00
11:56 am 11:56 Cloudy 84 28.9 76 24.4 77 77 NNE 3 6 30.09 1019 10 16 0.00 0.00
12:56 pm 12:56 Mostly Cloudy 88 31.1 78 25.6 73 73 NW 5 7 30.08 1019 10 16 0.00 0.00
1:11 pm 13:11 Partly Cloudy 86 30 76 24.4 72 72 S 5 7 30.07 1018 10 16 0.00 0.00
1:56 pm 13:56 Mostly Cloudy 89 31.7 76 24.4 65 65 SSW 3 6 30.04 1017 10 16 0.00 0.00
2:56 pm 14:56 Partly Cloudy 90 32.2 75 23.9 62 62 SSW 3 6 30.02 1017 10 16 0.00 0.00
3:56 pm 15:56 Mostly Cloudy 92 33.3 75 23.9 58 58 VRB 3 6 29.98 1015 10 16 0.00 0.00
4:56 pm 16:56 Partly Cloudy 93 33.9 73 22.8 52 52 VRB 7 11 29.96 1015 10 16 0.00 0.00
5:56 pm 17:56 Partly Cloudy 92 33.3 73 22.8 54 54 SSE 8 13 29.96 1015 10 16 0.00 0.00
6:56 pm 18:56 Partly Cloudy 92 33.3 73 22.8 54 54 SSE 8 13 29.96 1015 10 16 0.00 0.00
7:56 pm 19:56 Mostly Cloudy with Light Rain 89 31.7 76 24.4 65 65 S 10 17 29.98 1015 8 13 0.00 0.00
8:56 pm 20:56 Cloudy 83 28.3 77 25 82 82 NE 7 11 29.98 1015 10 16 0.13 3.30
9:11 pm 21:11 Cloudy with Thunderstorms 82 27.8 78 25.6 88 88 NE 7 11 30.00 1016 10 16 0.00 0.00
9:56 pm 21:56 Mostly Cloudy with Thunderstorms 79 26.1 76 24.4 90 90 WSW 9 15 30.02 1017 10 16 0.02 0.51
10:56 pm 22:56 Mostly Cloudy with Thunderstorms 80 26.7 76 24.4 87 87 Calm 30.03 1017 10 16 0.00 0.00
11:24 pm 23:24 Mostly Cloudy 81 27 72 22 74 74 N 16 26 30.06 1018 10 16 0.00 0.00
11:33 pm 23:33 Cloudy 78 25.6 70 21.1 76 76 N 9 15 30.05 1018 10 16 0.00 0.00
11:56 pm 23:56 Cloudy 75 23.9 70 21.1 84 84 NW 6 9 30.05 1018 10 16 0.00 0.00

Powered by AerisWeather